Time,TemperatureF,DewpointF,PressureIn,WindDirection,WindDirectionDegrees,WindSpeedMPH,WindSpeedGustMPH,Humidity,HourlyPrecipIn,Conditions,Clouds,dailyrainin,SoftwareType,DateUTC
2013-02-22 00:10:00,30.5,26.0,30.08,South,181,1.0,4.0,84,0.07,,,0.07,weatherlink.com 1.10,2013-02-22 05:10:00,
2013-02-22 00:26:00,30.6,27.0,30.09,SSE,150,1.0,7.0,85,0.08,,,0.01,weatherlink.com 1.10,2013-02-22 05:26:00,
2013-02-22 00:41:00,30.7,27.0,30.07,East,100,0.0,3.0,85,0.08,,,0.02,weatherlink.com 1.10,2013-02-22 05:41:00,
2013-02-22 00:56:00,30.7,27.0,30.07,NE,49,2.0,3.0,86,0.05,,,0.03,weatherlink.com 1.10,2013-02-22 05:56:00,
2013-02-22 01:11:00,30.7,27.0,30.07,NE,49,1.0,4.0,86,0.03,,,0.03,weatherlink.com 1.10,2013-02-22 06:11:00,
2013-02-22 01:26:00,30.7,27.0,30.07,NE,49,1.0,5.0,87,0.02,,,0.03,weatherlink.com 1.10,2013-02-22 06:26:00,
2013-02-22 01:41:00,30.8,27.0,30.07,NE,49,0.0,2.0,86,0.01,,,0.03,weatherlink.com 1.10,2013-02-22 06:41:00,
2013-02-22 01:56:00,30.7,27.0,30.04,NE,49,0.0,2.0,87,0.01,,,0.04,weatherlink.com 1.10,2013-02-22 06:56:00,
2013-02-22 02:11:00,30.8,27.0,30.02,NE,49,0.0,3.0,87,0.01,,,0.04,weatherlink.com 1.10,2013-02-22 07:11:00,
2013-02-22 02:26:00,30.7,27.0,30.01,NE,49,0.0,4.0,87,0.01,,,0.04,weatherlink.com 1.10,2013-02-22 07:26:00,
2013-02-22 02:41:00,30.7,27.0,30.00,NE,49,1.0,3.0,87,0.01,,,0.04,weatherlink.com 1.10,2013-02-22 07:41:00,
2013-02-22 02:56:00,30.8,27.0,29.98,NE,49,0.0,4.0,87,0.00,,,0.04,weatherlink.com 1.10,2013-02-22 07:56:00,
2013-02-22 03:11:00,31.0,28.0,29.96,NE,49,0.0,7.0,87,0.00,,,0.04,weatherlink.com 1.10,2013-02-22 08:11:00,
2013-02-22 03:26:00,31.0,28.0,29.95,NE,49,0.0,4.0,87,0.00,,,0.04,weatherlink.com 1.10,2013-02-22 08:26:00,
2013-02-22 03:41:00,31.0,28.0,29.94,NE,49,0.0,4.0,87,0.00,,,0.04,weatherlink.com 1.10,2013-02-22 08:41:00,
2013-02-22 03:56:00,31.1,28.0,29.94,NE,49,0.0,2.0,88,0.00,,,0.04,weatherlink.com 1.10,2013-02-22 08:56:00,
2013-02-22 04:11:00,31.1,28.0,29.94,NE,49,0.0,5.0,89,0.00,,,0.04,weatherlink.com 1.10,2013-02-22 09:11:00,
2013-02-22 04:26:00,31.3,29.0,29.93,NE,49,0.0,4.0,90,0.02,,,0.06,weatherlink.com 1.10,2013-02-22 09:26:00,
2013-02-22 04:41:00,31.5,29.0,29.93,NE,49,0.0,1.0,90,0.02,,,0.06,weatherlink.com 1.10,2013-02-22 09:41:00,
2013-02-22 04:56:00,31.7,29.0,29.93,NE,49,0.0,1.0,90,0.03,,,0.07,weatherlink.com 1.10,2013-02-22 09:56:00,
2013-02-22 05:11:00,32.0,30.0,29.93,NE,49,0.0,0.0,91,0.03,,,0.07,weatherlink.com 1.10,2013-02-22 10:11:00,
2013-02-22 05:26:00,32.0,30.0,29.92,NE,49,0.0,3.0,91,0.01,,,0.07,weatherlink.com 1.10,2013-02-22 10:26:00,
2013-02-22 05:41:00,32.1,30.0,29.92,NE,49,0.0,3.0,91,0.01,,,0.07,weatherlink.com 1.10,2013-02-22 10:41:00,
2013-02-22 05:56:00,32.2,30.0,29.91,NE,49,0.0,2.0,92,0.01,,,0.08,weatherlink.com 1.10,2013-02-22 10:56:00,
2013-02-22 06:11:00,32.4,30.0,29.91,NE,49,0.0,1.0,92,0.01,,,0.08,weatherlink.com 1.10,2013-02-22 11:11:00,
2013-02-22 06:26:00,32.5,31.0,29.91,NE,49,2.0,3.0,92,0.01,,,0.08,weatherlink.com 1.10,2013-02-22 11:26:00,
2013-02-22 06:41:00,32.7,31.0,29.91,NE,49,0.0,4.0,92,0.01,,,0.08,weatherlink.com 1.10,2013-02-22 11:41:00,
2013-02-22 06:56:00,32.8,31.0,29.91,NE,49,0.0,1.0,92,0.00,,,0.08,weatherlink.com 1.10,2013-02-22 11:56:00,
2013-02-22 07:11:00,33.0,31.0,29.91,NE,49,0.0,3.0,93,0.00,,,0.08,weatherlink.com 1.10,2013-02-22 12:11:00,
2013-02-22 07:26:00,33.0,31.0,29.91,NE,49,0.0,1.0,93,0.00,,,0.08,weatherlink.com 1.10,2013-02-22 12:26:00,
2013-02-22 07:41:00,33.1,31.0,29.91,NE,49,0.0,1.0,93,0.01,,,0.09,weatherlink.com 1.10,2013-02-22 12:41:00,
2013-02-22 07:56:00,33.0,31.0,29.91,ESE,119,0.0,3.0,93,0.01,,,0.09,weatherlink.com 1.10,2013-02-22 12:56:00,
2013-02-22 08:11:00,33.2,31.0,29.92,ESE,123,0.0,2.0,93,0.01,,,0.09,weatherlink.com 1.10,2013-02-22 13:11:00,
2013-02-22 08:26:00,33.4,32.0,29.93,ESE,123,0.0,1.0,93,0.02,,,0.10,weatherlink.com 1.10,2013-02-22 13:26:00,
2013-02-22 08:41:00,33.6,32.0,29.93,ESE,123,0.0,0.0,93,0.01,,,0.10,weatherlink.com 1.10,2013-02-22 13:41:00,
2013-02-22 08:56:00,33.9,32.0,29.93,SE,130,0.0,2.0,94,0.02,,,0.11,weatherlink.com 1.10,2013-02-22 13:56:00,
2013-02-22 09:11:00,34.1,32.0,29.93,South,177,0.0,3.0,93,0.03,,,0.12,weatherlink.com 1.10,2013-02-22 14:11:00,
2013-02-22 09:26:00,34.4,33.0,29.93,SE,131,0.0,7.0,94,0.02,,,0.12,weatherlink.com 1.10,2013-02-22 14:26:00,
2013-02-22 09:41:00,34.7,33.0,29.93,SSE,164,3.0,6.0,94,0.04,,,0.14,weatherlink.com 1.10,2013-02-22 14:41:00,
2013-02-22 09:56:00,35.1,34.0,29.93,ESE,106,3.0,6.0,94,0.03,,,0.14,weatherlink.com 1.10,2013-02-22 14:56:00,
2013-02-22 10:12:00,35.5,34.0,29.93,ESE,119,1.0,6.0,94,0.02,,,0.14,weatherlink.com 1.10,2013-02-22 15:12:00,
2013-02-22 10:27:00,36.0,34.0,29.93,SE,134,3.0,7.0,93,0.03,,,0.15,weatherlink.com 1.10,2013-02-22 15:27:00,
2013-02-22 10:42:00,36.9,35.0,29.93,SE,128,0.0,5.0,93,0.02,,,0.16,weatherlink.com 1.10,2013-02-22 15:42:00,
2013-02-22 10:57:00,37.7,36.0,29.93,SE,130,1.0,5.0,93,0.02,,,0.16,weatherlink.com 1.10,2013-02-22 15:57:00,
2013-02-22 11:12:00,37.8,36.0,29.93,SE,140,1.0,5.0,92,0.03,,,0.17,weatherlink.com 1.10,2013-02-22 16:12:00,
2013-02-22 11:27:00,38.2,36.0,29.94,South,182,2.0,6.0,92,0.02,,,0.17,weatherlink.com 1.10,2013-02-22 16:27:00,
2013-02-22 11:42:00,39.5,38.0,29.94,South,169,5.0,6.0,93,0.01,,,0.17,weatherlink.com 1.10,2013-02-22 16:42:00,
2013-02-22 11:57:00,40.8,38.0,29.95,South,180,6.0,10.0,90,0.02,,,0.18,weatherlink.com 1.10,2013-02-22 16:57:00,
2013-02-22 12:12:00,41.4,38.0,29.96,SW,219,6.0,12.0,88,0.01,,,0.18,weatherlink.com 1.10,2013-02-22 17:12:00,
2013-02-22 12:27:00,41.7,38.0,29.96,WSW,242,10.0,12.0,86,0.02,,,0.19,weatherlink.com 1.10,2013-02-22 17:27:00,
2013-02-22 12:42:00,41.6,38.0,29.96,South,177,4.0,10.0,86,0.02,,,0.19,weatherlink.com 1.10,2013-02-22 17:42:00,
2013-02-22 12:57:00,41.7,37.0,29.96,SSW,201,7.0,10.0,84,0.01,,,0.19,weatherlink.com 1.10,2013-02-22 17:57:00,
2013-02-22 13:12:00,42.1,38.0,29.96,South,178,2.0,10.0,84,0.01,,,0.19,weatherlink.com 1.10,2013-02-22 18:12:00,
2013-02-22 13:27:00,42.7,38.0,29.96,South,188,2.0,11.0,84,0.01,,,0.20,weatherlink.com 1.10,2013-02-22 18:27:00,
2013-02-22 13:42:00,42.9,38.0,29.96,South,180,6.0,11.0,82,0.01,,,0.20,weatherlink.com 1.10,2013-02-22 18:42:00,
2013-02-22 13:57:00,43.1,38.0,29.95,South,188,5.0,11.0,81,0.01,,,0.20,weatherlink.com 1.10,2013-02-22 18:57:00,
2013-02-22 14:12:00,43.3,38.0,29.95,South,185,9.0,10.0,81,0.01,,,0.20,weatherlink.com 1.10,2013-02-22 19:12:00,
2013-02-22 14:27:00,43.6,38.0,29.95,South,186,4.0,11.0,81,0.00,,,0.20,weatherlink.com 1.10,2013-02-22 19:27:00,
2013-02-22 14:42:00,44.4,39.0,29.95,SW,215,6.0,10.0,80,0.00,,,0.20,weatherlink.com 1.10,2013-02-22 19:42:00,
2013-02-22 14:57:00,44.3,38.0,29.95,SW,214,9.0,11.0,79,0.00,,,0.20,weatherlink.com 1.10,2013-02-22 19:57:00,
2013-02-22 15:12:00,44.5,38.0,29.94,SSW,198,3.0,8.0,79,0.00,,,0.20,weatherlink.com 1.10,2013-02-22 20:12:00,
2013-02-22 15:27:00,44.5,38.0,29.95,SSW,208,5.0,7.0,79,0.00,,,0.20,weatherlink.com 1.10,2013-02-22 20:27:00,
2013-02-22 15:42:00,44.8,39.0,29.94,SSW,203,5.0,6.0,79,0.00,,,0.20,weatherlink.com 1.10,2013-02-22 20:42:00,
2013-02-22 15:57:00,45.0,39.0,29.94,SSW,198,0.0,9.0,78,0.00,,,0.20,weatherlink.com 1.10,2013-02-22 20:57:00,
2013-02-22 16:12:00,45.0,39.0,29.95,South,184,5.0,11.0,78,0.00,,,0.20,weatherlink.com 1.10,2013-02-22 21:12:00,
2013-02-22 16:27:00,45.1,39.0,29.95,South,169,1.0,7.0,78,0.00,,,0.20,weatherlink.com 1.10,2013-02-22 21:27:00,
2013-02-22 16:42:00,44.6,38.0,29.94,SSW,207,2.0,6.0,78,0.00,,,0.20,weatherlink.com 1.10,2013-02-22 21:42:00,
2013-02-22 16:57:00,44.5,38.0,29.94,WSW,238,2.0,5.0,78,0.00,,,0.20,weatherlink.com 1.10,2013-02-22 21:57:00,
2013-02-22 17:12:00,44.6,38.0,29.94,SSW,192,4.0,6.0,78,0.00,,,0.20,weatherlink.com 1.10,2013-02-22 22:12:00,
2013-02-22 17:27:00,44.5,38.0,29.94,SSW,194,6.0,8.0,79,0.00,,,0.20,weatherlink.com 1.10,2013-02-22 22:27:00,
2013-02-22 17:42:00,44.5,38.0,29.95,SSW,203,4.0,9.0,78,0.00,,,0.20,weatherlink.com 1.10,2013-02-22 22:42:00,
2013-02-22 17:57:00,44.6,38.0,29.96,SW,219,3.0,8.0,77,0.00,,,0.20,weatherlink.com 1.10,2013-02-22 22:57:00,
2013-02-22 18:12:00,44.4,38.0,29.96,South,174,3.0,6.0,77,0.00,,,0.20,weatherlink.com 1.10,2013-02-22 23:12:00,
2013-02-22 18:27:00,44.0,37.0,29.96,SW,216,0.0,5.0,77,0.00,,,0.20,weatherlink.com 1.10,2013-02-22 23:27:00,
2013-02-22 18:42:00,43.5,37.0,29.96,SW,216,0.0,3.0,79,0.00,,,0.20,weatherlink.com 1.10,2013-02-22 23:42:00,
2013-02-22 18:57:00,43.0,36.0,29.97,SSW,209,1.0,6.0,77,0.00,,,0.20,weatherlink.com 1.10,2013-02-22 23:57:00,
2013-02-22 19:12:00,42.8,36.0,29.98,SSW,209,0.0,4.0,77,0.00,,,0.20,weatherlink.com 1.10,2013-02-23 00:12:00,
2013-02-22 19:27:00,42.2,36.0,29.98,SSW,207,0.0,3.0,78,0.00,,,0.20,weatherlink.com 1.10,2013-02-23 00:27:00,
2013-02-22 19:42:00,41.8,35.0,29.98,SSW,207,0.0,4.0,77,0.00,,,0.20,weatherlink.com 1.10,2013-02-23 00:42:00,
2013-02-22 19:57:00,40.1,35.0,29.98,NNE,28,0.0,2.0,81,0.00,,,0.20,weatherlink.com 1.10,2013-02-23 00:57:00,
2013-02-22 20:12:00,39.4,34.0,29.98,SE,143,0.0,0.0,82,0.00,,,0.20,weatherlink.com 1.10,2013-02-23 01:12:00,
2013-02-22 20:27:00,38.2,34.0,29.98,SE,143,0.0,0.0,84,0.00,,,0.20,weatherlink.com 1.10,2013-02-23 01:27:00,
2013-02-22 20:42:00,37.0,33.0,29.98,SE,143,0.0,1.0,86,0.00,,,0.20,weatherlink.com 1.10,2013-02-23 01:42:00,
2013-02-22 20:57:00,36.7,33.0,29.98,SE,143,0.0,1.0,87,0.00,,,0.20,weatherlink.com 1.10,2013-02-23 01:57:00,
2013-02-22 21:12:00,36.2,33.0,29.98,SE,143,0.0,0.0,88,0.00,,,0.20,weatherlink.com 1.10,2013-02-23 02:12:00,
2013-02-22 21:27:00,35.9,33.0,29.99,SE,143,0.0,0.0,89,0.00,,,0.20,weatherlink.com 1.10,2013-02-23 02:27:00,
2013-02-22 21:42:00,35.7,33.0,29.99,SE,143,0.0,0.0,90,0.00,,,0.20,weatherlink.com 1.10,2013-02-23 02:42:00,
2013-02-22 21:57:00,35.6,33.0,30.00,SE,143,0.0,0.0,90,0.00,,,0.20,weatherlink.com 1.10,2013-02-23 02:57:00,
2013-02-22 22:12:00,35.7,33.0,30.00,SE,143,0.0,0.0,91,0.00,,,0.20,weatherlink.com 1.10,2013-02-23 03:12:00,
2013-02-22 22:27:00,35.3,33.0,30.00,SE,143,1.0,1.0,90,0.00,,,0.20,weatherlink.com 1.10,2013-02-23 03:27:00,
2013-02-22 22:42:00,35.1,33.0,30.00,SE,143,0.0,1.0,91,0.00,,,0.20,weatherlink.com 1.10,2013-02-23 03:42:00,
2013-02-22 22:57:00,34.9,33.0,30.00,SE,143,0.0,0.0,91,0.00,,,0.20,weatherlink.com 1.10,2013-02-23 03:57:00,
2013-02-22 23:12:00,34.4,32.0,30.00,SE,143,0.0,1.0,91,0.00,,,0.20,weatherlink.com 1.10,2013-02-23 04:12:00,
2013-02-22 23:27:00,34.2,32.0,30.00,SE,143,0.0,1.0,91,0.00,,,0.20,weatherlink.com 1.10,2013-02-23 04:27:00,
2013-02-22 23:42:00,34.1,32.0,30.00,SE,143,0.0,1.0,92,0.00,,,0.20,weatherlink.com 1.10,2013-02-23 04:42:00,
2013-02-22 23:57:00,33.9,32.0,30.00,SE,143,0.0,0.0,92,0.00,,,0.20,weatherlink.com 1.10,2013-02-23 04:57:00,